Wind_Speed
4 3 3 3 2 2 2 3 3 3 3 3 3 3 3 3 3 3 3 4 4 5 5 5 6 6 7 8 9 10 11 12 12 12 11 10 9 8 9 9 9 10 9 5 2 1 1 3 6 5 6 6 5 4 1 4 5 7 7 7 7 7 7 4 5 7 6 4 5 5 5 6 6 6 6 6 7 9 8 7 7 6 5 5 5 6 5 5
3 2 2 2 2 2 2 2 2 3 3 3 3 3 3 3 3 3 4 4 4 5 5 5 6 6 6 7 8 9 10 11 12 12 12 11 9 9 9 9 9 9 9 7 2 1 3 3 3 3 6 6 5 5 3 2 4 6 7 7 7 6 7 4 4 8 6 5 6 6 6 7 7 6 6 6 8 9 8 6 7 6 5 4 5 5 5 5
3 2 2 1 1 0 0 1 2 2 2 3 3 3 4 4 4 4 4 4 4 5 5 6 6 6 6 6 7 7 8 9 10 11 12 11 10 9 10 9 9 9 9 8 6 2 4 4 5 2 4 5 5 5 4 1 2 4 6 7 7 6 7 5 5 9 6 6 7 6 7 7 7 7 6 6 8 10 8 7 7 6 5 4 4 5 4 4
2 2 1 1 2 2 2 2 2 3 3 3 4 4 4 4 5 5 5 5 5 5 5 6 6 7 7 7 6 6 7 8 9 10 11 11 10 10 10 9 9 9 9 9 9 6 3 4 6 5 2 5 5 5 5 3 1 4 5 7 7 7 7 4 5 9 8 7 7 6 6 6 6 6 5 6 7 9 8 7 8 5 5 5 3 3 4 3
2 2 3 3 3 4 4 4 4 4 5 5 5 5 5 5 6 6 6 6 6 6 6 6 6 7 7 7 7 7 7 7 8 8 9 10 10 10 10 10 10 9 9 9 9 8 5 3 4 5 3 5 5 6 6 4 2 4 6 6 6 8 8 4 4 8 8 8 8 6 6 6 6 5 5 6 7 8 8 7 8 5 4 6 4 3 4 4
4 4 5 5 5 6 6 6 6 6 6 6 6 7 7 7 7 7 7 7 7 7 7 7 7 7 7 7 8 7 7 7 7 7 7 8 9 10 10 10 10 9 9 8 8 8 7 4 3 5 5 5 6 6 6 5 4 5 7 6 6 7 10 8 4 7 8 7 8 7 6 6 5 5 4 7 9 9 8 7 7 6 4 5 5 4 4 4
6 6 6 7 7 8 8 8 8 8 8 8 8 8 8 8 8 8 8 8 8 8 8 8 8 8 7 7 8 8 8 7 7 7 6 7 8 9 10 10 11 10 8 7 6 7 7 5 4 5 6 5 5 6 7 6 4 5 7 7 7 8 9 9 7 7 7 8 9 8 7 6 5 5 4 6 9 8 8 7 7 7 5 4 5 5 5 5
7 8 8 8 9 9 10 10 10 10 11 11 10 10 10 10 10 10 10 9 9 9 10 10 9 9 8 7 7 8 8 8 7 7 6 6 6 7 8 10 11 10 8 6 5 6 7 5 3 4 5 4 4 6 7 6 5 3 5 7 8 8 8 8 8 8 8 8 9 9 8 7 6 6 5 6 7 7 8 7 7 7 6 5 5 6 6 6
9 9 10 10 11 11 12 12 12 13 13 13 13 13 13 12 12 11 11 11 11 11 11 11 10 10 8 7 8 7 8 8 8 8 7 6 5 6 7 8 10 9 8 7 5 6 7 6 3 3 4 3 3 5 7 6 5 4 2 6 8 7 6 7 8 8 9 9 9 9 8 6 7 6 6 6 6 6 7 7 8 7 6 6 5 6 6 7
12 12 12 13 13 14 14 14 14 15 15 15 15 15 15 15 14 14 13 12 12 12 12 12 12 11 9 7 8 7 7 8 8 8 7 6 6 6 6 7 8 8 8 7 6 6 7 7 5 4 4 3 2 3 6 4 3 3 2 2 6 7 5 5 7 9 10 10 10 10 9 6 5 5 6 6 5 5 5 6 8 7 6 6 5 5 7 8
15 15 15 16 16 16 16 16 17 17 17 17 17 17 17 17 17 16 16 14 14 14 13 13 12 12 10 7 8 7 7 8 8 8 8 7 6 6 6 6 6 7 8 8 6 5 7 8 5 4 3 3 2 3 4 3 1 2 2 2 3 6 8 6 7 11 12 11 10 10 9 6 5 5 5 5 4 5 5 5 7 7 6 5 5 5 6 7
17 17 18 18 18 18 18 18 19 19 19 19 19 19 19 19 19 19 18 17 16 15 15 14 14 13 12 9 8 9 8 8 7 8 8 7 6 6 7 6 5 6 7 7 6 5 6 8 6 5 3 2 3 4 3 2 0 3 5 5 5 7 9 10 9 12 13 11 9 8 8 7 6 7 6 5 4 5 5 5 6 6 6 6 4 5 6 6
18 18 18 18 18 19 19 20 20 20 20 20 20 20 20 20 20 20 20 19 18 18 17 16 15 15 14 10 9 11 11 9 7 8 8 7 7 7 7 7 5 5 6 7 7 5 5 7 6 5 3 1 3 6 5 2 1 3 6 7 8 7 8 9 9 10 10 9 8 8 7 7 8 8 7 6 5 5 6 5 5 5 6 6 5 5 5 5
18 18 19 19 20 20 20 21 21 22 22 22 21 21 21 22 21 21 21 21 20 20 19 18 18 16 15 13 11 13 13 11 8 8 9 9 7 8 8 8 7 5 6 6 6 5 3 5 6 6 6 2 3 7 7 5 3 4 7 9 9 9 7 10 11 9 9 9 9 8 8 8 8 7 7 8 6 6 6 5 5 5 6 6 5 5 5 5
20 21 22 22 22 23 23 23 23 24 24 23 23 22 23 23 23 22 22 21 21 21 21 21 20 18 17 15 15 16 16 13 10 10 11 10 9 9 9 9 8 7 7 7 6 5 3 4 6 7 7 3 3 8 8 7 6 6 8 10 10 10 8 10 13 12 11 10 10 9 9 10 9 8 7 8 7 7 8 7 6 5 6 6 6 6 6 6
23 23 23 23 24 24 24 24 25 25 25 25 24 24 23 23 23 23 22 21 21 21 22 22 22 21 19 17 18 18 18 16 13 12 12 12 12 11 10 10 9 9 9 7 6 5 4 4 5 7 7 2 5 9 9 8 7 8 9 12 13 12 11 10 11 11 11 11 12 11 10 10 10 10 8 7 7 8 8 8 8 7 6 6 6 6 6 6
21 22 22 22 22 23 23 24 24 25 25 25 24 24 24 24 23 23 23 22 22 21 22 23 23 23 21 20 20 20 20 18 14 14 14 15 14 12 12 11 11 11 10 8 7 6 4 4 5 7 7 2 5 9 9 9 9 9 9 12 14 13 13 12 11 9 8 9 11 10 10 9 9 10 10 7 6 8 10 10 9 8 7 7 5 5 5 6
19 19 20 20 21 22 22 23 23 24 24 24 24 24 23 23 23 23 23 22 22 22 22 23 24 24 24 23 22 21 22 19 17 18 17 17 16 15 14 13 12 11 11 9 8 7 5 5 6 8 6 3 5 8 8 9 9 9 9 10 12 12 12 12 11 10 7 5 7 7 8 9 9 9 11 9 7 8 11 11 10 9 8 7 6 5 4 4
16 17 17 18 19 20 21 22 22 23 23 23 24 24 23 23 23 23 23 23 23 24 24 24 24 25 26 25 24 23 23 21 19 20 19 19 18 17 16 15 14 13 12 10 9 9 6 5 7 7 7 6 6 7 8 9 9 9 9 10 11 11 11 10 9 10 9 5 4 4 4 6 8 9 9 9 8 8 10 12 11 10 9 8 8 7 6 5
14 15 15 16 17 18 19 20 20 21 21 21 22 23 23 23 24 24 24 25 25 26 25 25 26 27 28 27 25 25 25 23 21 22 22 22 20 18 18 17 15 13 13 12 11 10 8 7 8 8 10 9 9 10 11 12 12 12 12 11 11 12 11 10 9 9 9 6 4 4 3 3 5 8 8 9 8 7 9 12 12 10 10 10 9 10 9 7
13 14 14 15 16 16 17 17 18 18 18 18 18 20 20 22 23 24 26 27 27 27 26 26 27 29 30 29 27 27 26 25 24 25 24 23 21 20 20 19 16 14 14 15 13 10 9 9 8 10 12 10 11 12 12 13 14 14 14 13 12 12 11 10 9 9 9 8 6 5 4 3 3 5 6 8 9 7 7 9 10 10 10 10 10 11 12 11
12 12 13 13 14 15 15 16 16 16 16 15 16 16 18 19 21 23 24 25 27 28 27 28 28 30 32 31 29 29 27 26 27 27 26 25 23 22 22 20 17 16 18 16 12 10 10 11 10 12 12 11 11 12 13 14 14 15 15 15 14 14 12 10 9 9 9 8 8 6 4 3 3 4 5 6 8 9 8 7 8 9 10 10 9 11 12 12
11 12 12 13 14 15 15 16 16 16 15 15 15 15 16 18 19 20 21 21 24 26 26 28 29 31 34 33 30 29 27 27 28 28 28 26 25 25 24 22 19 20 19 15 12 11 12 13 13 13 12 10 10 13 13 13 14 15 15 16 16 15 13 10 10 9 9 9 8 7 5 3 2 3 5 5 6 8 9 9 8 8 9 10 9 9 11 11
11 12 13 13 14 16 16 16 17 17 17 16 16 16 16 17 18 18 20 19 21 24 25 26 27 29 33 34 32 29 27 27 28 28 28 27 26 27 25 23 23 22 19 16 15 15 15 17 16 13 11 10 10 12 13 13 15 16 15 16 17 16 14 12 11 10 10 8 7 6 4 2 1 2 4 5 5 7 8 9 9 9 10 10 10 9 10 10
13 14 15 15 15 17 17 17 18 18 18 18 18 18 18 18 18 18 19 18 20 24 25 24 25 27 32 35 31 27 28 27 26 28 27 25 27 27 25 25 24 22 19 18 18 18 18 19 17 14 12 10 10 11 13 14 16 16 16 16 17 18 17 15 13 11 10 7 7 7 4 1 1 2 3 4 5 6 7 8 9 9 10 10 10 10 11 10
15 16 17 16 17 18 19 19 20 20 21 22 21 21 20 20 20 19 20 19 21 24 24 24 25 26 29 31 28 26 26 24 25 29 27 25 27 28 26 25 24 22 20 21 22 20 20 19 18 15 13 11 9 10 11 13 16 16 17 18 18 19 18 15 13 12 11 8 9 8 6 4 2 3 4 4 6 7 7 8 8 9 9 10 10 9 10 10
16 17 17 18 18 20 20 21 22 23 24 24 24 24 23 23 22 22 21 22 23 24 25 25 25 25 26 28 27 24 21 20 27 30 26 25 28 28 26 23 22 22 23 24 23 21 20 19 18 16 14 12 9 9 11 13 14 16 18 19 20 21 19 15 14 13 11 11 11 9 8 7 5 4 5 5 6 7 8 9 8 9 9 9 8 8 8 8
16 17 18 19 19 20 21 22 23 24 25 25 26 26 26 25 24 24 23 23 24 25 25 25 24 24 25 25 24 21 20 23 27 26 24 26 29 28 25 21 20 23 26 25 21 20 21 20 19 19 16 13 10 11 14 13 12 16 20 21 22 23 22 19 17 15 13 14 12 8 9 9 6 6 7 6 6 7 9 10 9 9 9 9 9 8 6 6
16 17 18 19 20 20 21 22 22 23 24 25 26 26 27 26 26 25 24 24 26 26 26 26 25 24 25 25 23 22 22 25 26 25 25 26 27 26 23 21 23 26 28 24 21 22 22 21 22 22 18 14 13 14 14 10 13 20 24 23 23 25 25 21 19 18 17 15 11 8 10 10 9 8 8 6 6 7 9 10 10 9 9 10 10 8 6 6
16 16 17 18 18 18 19 20 21 22 23 25 26 27 27 27 27 26 25 26 27 28 27 27 26 25 25 26 25 24 23 23 24 24 24 23 23 23 23 24 27 29 28 24 24 27 25 25 26 23 18 15 15 15 14 11 16 24 26 25 25 26 25 23 21 20 20 16 11 9 11 12 11 9 8 7 5 6 8 9 9 9 9 10 10 9 8 7
14 15 15 16 17 17 18 19 21 22 23 25 27 28 29 29 28 26 26 28 28 27 27 26 26 26 25 26 27 26 23 21 22 22 21 21 22 22 23 25 26 28 28 24 26 29 29 28 27 22 19 18 16 16 15 14 17 24 27 26 27 26 25 24 22 21 19 13 11 12 13 14 12 8 8 9 6 5 7 9 9 9 9 10 10 10 9 8
13 14 15 16 16 17 19 20 21 23 24 26 28 29 31 31 30 28 28 29 27 27 27 25 25 25 25 26 27 27 25 22 20 20 21 21 21 20 20 21 22 24 24 21 24 30 31 28 25 22 21 19 17 17 17 16 17 23 28 28 27 26 25 23 21 20 15 10 11 13 15 15 10 7 9 9 7 7 8 9 10 10 9 9 9 9 9 9
14 15 15 16 17 18 19 21 22 24 25 27 29 31 32 33 31 30 30 30 28 27 26 25 26 25 25 26 24 25 26 24 22 21 22 23 22 21 20 20 21 22 21 19 23 29 29 26 23 21 20 18 16 15 17 18 18 23 29 29 26 25 23 21 19 16 12 9 10 12 14 12 5 5 6 6 7 8 9 10 11 10 9 8 8 9 10 11
15 15 16 17 19 20 21 22 23 25 26 28 30 31 33 33 32 31 31 30 28 27 25 25 26 25 24 24 24 24 24 25 24 22 21 23 23 22 21 21 21 20 20 21 25 27 27 25 22 19 18 17 14 12 15 19 20 24 29 29 27 25 21 19 18 16 14 13 12 12 13 8 3 2 3 3 5 6 7 10 11 10 9 9 9 10 11 11
16 16 18 19 20 21 22 24 25 26 28 29 30 32 33 33 33 31 30 29 27 26 26 26 27 26 24 25 25 24 25 25 26 24 22 22 21 20 19 19 19 19 19 20 23 25 26 24 22 22 22 20 16 13 16 21 23 26 29 29 27 24 20 19 19 17 16 16 13 13 13 8 3 5 4 3 1 1 5 8 9 10 11 10 10 11 11 12
17 18 19 20 21 23 24 25 27 28 29 30 31 32 33 33 33 32 30 28 26 25 26 26 28 27 26 27 27 26 26 26 27 27 23 20 19 19 19 17 16 16 16 17 18 21 23 20 21 26 25 21 19 19 20 22 24 27 28 27 25 23 21 22 21 18 16 14 13 13 12 6 5 6 4 3 3 2 2 4 6 9 11 12 12 12 13 13
18 19 20 21 23 24 25 27 28 30 30 31 31 32 32 32 32 31 29 27 24 23 25 27 29 28 28 29 29 29 28 27 27 26 20 17 17 19 18 16 15 14 13 15 16 18 19 19 24 27 24 22 23 24 24 24 25 26 26 25 25 24 23 23 22 21 18 14 14 13 9 6 5 5 3 2 2 2 2 3 6 9 11 13 13 13 13 13
19 20 22 22 24 25 27 28 30 31 31 31 31 31 31 31 30 28 26 24 21 21 24 27 29 29 30 32 31 32 31 28 27 25 17 14 16 19 20 18 18 16 14 16 18 19 19 22 27 26 24 26 28 28 26 25 25 25 24 25 26 26 25 22 20 20 17 15 16 13 10 7 5 4 2 1 1 1 1 4 7 9 11 11 12 12 12 13
20 22 22 23 25 27 28 30 31 32 32 32 31 31 30 29 28 26 23 20 19 19 23 27 30 31 32 34 33 32 32 30 27 23 18 16 18 21 23 23 22 22 21 20 20 20 21 24 27 26 26 30 30 28 26 24 24 24 25 27 28 27 27 25 23 20 16 15 15 14 12 8 4 4 4 1 1 1 2 4 7 9 10 10 10 10 10 11
21 23 23 24 26 28 29 31 32 33 33 33 31 30 29 28 26 26 23 19 17 17 20 26 31 33 34 35 34 33 33 32 29 23 21 22 22 23 25 26 25 25 24 23 21 21 24 27 28 27 29 32 30 26 23 21 23 25 26 28 29 29 28 27 26 23 18 17 16 14 13 8 6 7 6 1 1 2 4 6 6 9 10 10 9 8 8 9
22 24 24 25 27 28 31 32 33 33 34 33 31 29 28 27 26 25 23 20 17 16 18 23 29 33 36 37 36 36 34 33 30 26 25 26 26 26 27 26 25 25 25 24 23 24 25 27 29 29 32 33 28 24 23 23 25 24 22 23 24 27 28 26 27 25 20 18 17 14 12 9 8 8 6 2 1 2 5 7 7 7 10 11 10 9 9 9
24 25 25 26 27 30 32 33 33 34 34 33 31 29 27 26 25 24 23 20 17 16 17 20 25 31 37 38 38 37 36 33 31 28 27 27 28 28 27 26 25 25 25 24 22 22 23 26 30 31 32 32 28 25 25 25 25 23 21 19 18 22 24 24 26 25 22 19 16 13 11 9 8 8 5 3 1 2 5 7 6 6 9 11 11 10 10 9
25 25 26 27 28 31 32 33 33 34 33 32 31 29 27 26 24 22 20 18 16 15 16 19 22 27 34 38 38 38 37 34 32 30 28 27 29 30 27 26 26 25 24 24 22 23 25 29 32 32 32 32 29 26 26 26 25 23 21 20 19 19 18 18 22 24 23 21 16 13 10 6 5 6 5 1 2 4 6 7 7 7 8 10 10 10 10 9
24 26 27 28 29 31 33 34 34 33 32 31 30 29 27 24 22 20 18 16 15 15 16 19 22 25 30 35 38 39 37 33 33 32 30 28 29 30 28 26 26 26 25 25 23 24 26 29 32 33 35 34 30 27 27 27 25 23 22 21 21 21 19 19 21 23 24 22 17 14 10 6 5 6 5 2 5 6 8 9 9 8 8 8 9 9 9 7
24 26 28 29 30 31 32 34 34 32 31 30 28 28 26 23 20 18 17 16 15 15 16 19 22 24 28 31 35 37 36 35 35 33 33 30 29 29 28 26 27 27 26 25 25 25 25 27 32 35 37 35 30 27 27 26 26 24 22 22 24 25 24 22 22 23 24 22 17 15 12 8 7 7 4 5 7 8 10 10 9 9 8 7 8 9 7 5
26 27 28 30 31 32 33 34 34 32 30 28 26 25 24 21 18 17 16 16 14 14 16 19 22 24 26 29 32 34 34 36 37 36 35 34 32 31 29 27 28 30 28 26 26 26 25 27 33 37 37 34 29 26 25 25 25 23 20 21 23 25 26 25 25 25 24 22 17 15 14 12 8 6 4 5 7 9 9 9 8 8 8 7 8 8 6 5
27 27 28 31 33 34 34 35 34 32 29 27 25 23 21 19 18 17 16 16 15 14 16 18 22 25 27 28 30 31 31 33 35 37 39 37 34 34 32 29 30 32 31 28 28 28 27 29 35 38 36 34 31 28 26 25 24 22 20 20 19 23 27 28 27 25 25 23 17 13 15 13 7 5 5 5 8 9 9 8 6 7 9 9 8 7 6 5
27 28 30 32 34 35 36 36 34 32 30 27 24 22 20 17 16 17 18 17 15 15 16 17 19 24 27 28 29 30 30 29 30 34 39 39 37 36 35 32 31 32 33 30 29 29 29 29 33 36 35 33 32 31 29 26 24 22 21 20 19 22 27 29 28 26 24 23 17 12 14 12 6 7 8 6 7 9 8 6 5 5 9 10 8 7 6 5
26 28 30 32 33 35 36 36 35 33 31 27 24 22 21 18 15 16 18 19 19 17 16 17 17 20 25 28 29 30 30 29 29 31 33 37 38 39 38 35 32 31 32 31 29 29 30 30 31 34 35 33 31 30 30 28 26 23 21 21 19 20 25 28 28 28 25 22 18 15 14 11 9 10 9 5 6 8 8 6 5 5 7 9 9 7 5 4
27 28 30 32 33 34 35 36 35 33 31 28 25 23 21 20 18 16 16 17 19 19 19 18 17 18 21 25 28 31 31 30 30 30 30 32 36 40 41 37 34 33 33 31 29 29 30 30 30 32 34 34 32 30 29 28 26 23 20 20 19 20 24 28 29 29 27 24 20 16 14 13 12 10 7 4 5 7 7 6 6 5 5 6 5 3 2 2
27 28 29 31 33 34 35 35 34 33 31 28 26 23 21 20 20 19 17 15 15 17 18 19 19 18 19 21 25 30 31 31 31 31 30 30 32 38 42 39 37 37 35 33 31 32 33 32 30 32 33 34 33 30 29 28 25 20 17 19 20 20 22 26 29 28 27 23 19 16 15 14 12 9 6 5 6 7 6 7 7 5 4 3 1 1 1 2
27 28 30 32 34 34 35 34 33 32 30 28 25 23 22 21 20 21 20 17 14 14 14 16 18 19 19 20 22 25 29 31 31 31 31 30 30 35 41 42 40 39 37 35 33 33 36 35 31 31 32 33 33 30 30 29 24 20 19 20 22 20 20 24 27 28 26 23 19 16 15 15 13 11 9 8 8 8 8 8 7 4 3 2 1 3 4 4
Wind_Direction
134 138 137 128 113 96 80 66 54 45 36 26 17 7 3 358 350 343 341 343 342 345 346 349 354 0 7 13 20 25 28 30 33 35 34 35 30 20 23 25 24 27 30 42 109 121 9 11 24 65 82 74 89 68 102 193 204 204 209 209 207 205 190 201 217 188 178 180 159 140 137 142 135 132 132 127 126 114 105 110 114 115 114 108 109 108 117 131
146 144 141 131 120 103 77 55 42 34 25 16 10 2 358 355 349 344 339 337 338 339 339 342 345 347 354 1 9 15 21 25 29 32 30 31 30 19 19 22 20 23 26 29 57 200 252 275 340 54 70 67 77 56 55 170 213 217 222 216 214 216 198 208 209 178 174 168 151 139 141 143 136 131 131 134 126 112 109 115 116 120 121 113 111 111 121 135
150 153 155 156 163 152 352 357 358 357 356 353 350 348 345 345 343 341 338 336 335 334 336 336 338 340 344 350 356 2 10 16 23 28 27 27 27 19 17 19 16 17 18 18 21 342 257 259 275 298 53 51 55 49 42 44 237 233 233 222 221 225 204 196 177 172 170 159 155 148 149 143 130 127 126 127 119 114 120 124 117 117 128 128 118 118 125 130
172 188 208 230 251 271 284 298 308 311 317 320 321 323 325 327 328 328 329 328 328 329 330 329 330 333 337 343 348 351 357 3 12 22 24 23 22 17 18 17 14 11 11 11 12 358 299 267 275 283 6 26 25 37 29 11 286 244 236 222 224 228 210 194 187 187 176 157 161 156 148 138 123 120 115 115 114 117 126 130 118 114 133 136 135 147 142 129
233 244 254 262 271 276 281 287 291 293 296 299 303 305 308 310 312 314 315 316 318 319 320 321 321 322 327 333 339 344 348 352 2 14 19 20 17 15 17 15 14 10 7 9 6 0 349 319 296 300 345 1 359 14 13 358 300 245 230 227 224 218 207 194 180 181 171 155 159 158 145 141 135 122 110 111 111 112 120 127 119 118 139 135 147 181 169 152
261 264 267 271 274 277 280 282 283 285 287 289 291 293 296 299 301 303 304 306 308 310 311 312 313 315 319 324 328 333 338 343 352 2 11 15 12 11 13 13 15 13 8 9 4 359 1 2 348 339 344 345 344 352 353 341 306 251 226 221 209 196 196 195 180 165 164 159 159 159 153 153 147 133 121 112 110 110 114 123 120 124 143 137 150 174 174 168
272 273 274 275 276 278 279 279 281 281 282 282 283 284 287 288 292 295 297 299 301 302 303 304 307 310 316 321 320 321 326 331 338 348 359 6 6 5 8 12 17 16 10 7 360 354 2 16 12 346 337 338 341 339 334 328 307 262 228 214 203 193 194 198 198 181 169 167 166 160 156 162 152 137 136 115 111 113 115 124 123 126 142 145 157 167 168 170
279 279 280 280 279 279 279 279 279 278 278 278 278 279 279 281 284 287 290 294 295 296 296 297 301 305 314 320 315 314 318 323 326 334 344 351 355 357 2 12 17 17 11 1 349 346 354 7 6 328 321 336 342 326 320 320 314 287 228 212 206 198 198 200 201 198 184 176 175 165 153 161 154 140 140 123 119 123 121 130 128 128 138 144 161 165 166 171
278 279 279 279 280 279 279 279 278 277 277 276 276 276 276 277 278 280 283 287 290 292 292 294 295 298 307 314 310 311 314 316 319 323 332 336 338 347 354 8 15 12 8 359 345 340 340 342 335 301 296 321 343 314 307 313 322 325 257 214 204 192 196 200 198 206 199 182 179 171 158 158 152 145 144 136 134 131 129 133 126 124 132 136 153 162 164 168
276 276 276 276 277 277 278 278 277 277 276 276 275 274 274 275 275 276 277 280 284 287 289 291 291 292 297 305 304 307 308 308 314 317 323 328 326 335 341 359 13 5 1 357 348 339 332 326 319 299 281 292 324 289 286 301 335 347 341 219 199 179 170 193 201 210 205 188 186 179 167 160 156 160 154 144 142 134 137 138 123 119 127 131 142 158 162 163
276 275 275 275 275 276 276 277 277 276 276 276 275 275 274 273 273 274 274 275 277 281 284 286 287 287 289 293 295 296 298 300 309 312 316 322 321 328 329 342 6 358 351 355 353 343 329 322 323 325 304 299 292 246 261 289 6 68 80 137 184 166 158 169 189 199 195 186 186 180 173 168 169 185 174 152 148 145 150 138 123 120 126 133 139 154 162 163
277 276 275 275 275 276 276 276 277 276 276 275 275 274 273 272 272 271 272 271 272 274 277 280 282 283 283 284 285 286 285 288 301 307 310 316 319 324 321 324 346 347 343 348 352 344 325 321 326 332 329 319 279 242 236 269 8 105 113 137 155 159 166 167 167 176 177 177 180 174 176 179 182 198 194 167 158 165 164 139 130 133 133 137 138 152 158 162
278 278 277 277 277 277 277 277 277 277 276 276 275 274 273 272 271 270 270 270 269 269 270 273 275 276 278 278 278 279 277 280 291 298 301 308 317 320 316 314 318 326 330 337 347 351 332 317 314 304 288 297 274 250 229 211 174 121 112 119 136 145 170 180 175 171 167 170 175 173 178 181 184 196 199 189 178 172 169 146 144 156 150 142 138 154 154 149
278 279 279 279 279 279 278 278 277 276 276 275 275 275 274 273 271 270 269 268 268 268 267 267 268 270 273 273 270 270 272 275 279 284 290 298 306 308 308 309 308 306 309 320 341 356 344 309 301 290 280 291 274 246 221 191 162 135 110 103 120 131 156 183 184 181 177 174 172 171 173 174 177 184 190 193 188 177 171 158 159 175 168 150 143 157 151 139
278 279 279 280 279 279 279 278 278 277 276 275 274 274 273 273 273 271 269 268 267 266 266 264 264 266 266 267 265 264 267 270 271 275 281 288 292 295 298 303 303 296 294 305 326 345 348 304 294 289 283 301 279 241 210 180 159 141 118 106 109 113 129 166 172 173 180 179 171 166 164 167 169 170 179 185 182 181 174 166 169 178 175 157 154 162 154 142
279 280 280 280 279 279 278 278 277 277 276 276 275 273 272 272 272 272 271 269 266 264 264 263 263 263 263 263 262 262 264 264 267 270 273 279 284 288 291 293 295 293 289 294 305 322 337 300 286 286 277 289 278 241 200 174 156 145 131 114 107 106 110 127 145 155 166 170 167 162 157 160 166 168 174 179 181 185 181 178 176 173 171 161 160 168 161 149
281 281 281 280 280 279 278 278 277 277 276 276 275 274 273 272 271 271 271 270 268 265 262 262 262 262 262 260 259 260 261 263 265 265 268 274 278 281 282 284 291 294 291 286 289 301 316 297 284 279 270 252 260 238 196 175 162 153 147 129 120 120 117 113 115 123 145 163 159 156 154 148 154 167 173 174 183 191 188 188 184 175 169 158 161 178 176 161
284 283 282 282 281 280 279 278 277 277 277 278 277 275 274 274 273 272 271 270 268 265 261 260 259 260 260 258 257 257 260 262 261 262 266 270 272 273 275 280 288 290 287 282 281 283 290 289 277 272 266 241 241 232 199 185 179 171 166 149 138 133 127 121 115 107 114 149 145 143 153 142 135 155 174 174 174 186 189 192 190 181 174 159 158 183 198 188
288 287 286 285 284 283 283 282 281 281 281 280 279 278 276 275 274 272 271 269 266 263 260 259 258 257 257 256 255 255 258 259 259 262 263 263 267 269 272 276 279 280 282 281 274 272 274 268 264 264 258 237 224 214 190 184 186 178 167 155 142 131 124 120 115 107 105 118 128 126 147 146 133 140 164 173 165 172 185 192 191 182 178 171 165 176 197 212
295 295 294 293 291 290 290 289 289 288 287 285 282 280 278 276 273 272 270 267 265 263 262 261 259 257 256 256 255 255 257 258 258 259 259 260 263 266 270 272 272 274 274 270 264 264 265 259 255 254 252 235 212 206 194 184 181 175 168 159 143 128 121 116 112 109 106 107 118 123 125 142 142 139 152 165 158 157 174 185 191 188 182 177 172 175 184 198
302 302 302 301 299 298 297 297 297 297 295 292 286 282 280 276 272 270 268 266 266 265 265 263 262 262 260 257 255 253 254 256 256 256 257 259 260 263 266 266 266 265 262 262 262 260 256 254 252 250 252 243 224 219 206 191 184 180 175 167 152 138 130 123 119 120 115 108 113 122 122 133 154 150 151 158 155 151 160 179 192 196 193 185 178 176 178 187
311 310 309 310 309 307 306 306 306 305 303 300 294 287 282 277 274 271 269 268 268 267 265 264 262 261 260 258 255 254 254 254 255 255 257 257 257 258 257 257 257 252 253 260 261 251 245 251 251 249 252 249 238 229 215 201 193 191 185 175 165 153 144 140 137 137 132 121 116 115 115 129 160 171 169 164 160 157 161 176 190 197 200 198 192 183 178 182
318 315 316 319 316 312 313 313 312 312 309 305 300 293 287 283 280 278 275 273 271 267 264 262 261 260 261 260 257 256 255 254 254 255 255 255 255 253 252 253 250 245 250 259 254 238 235 242 245 248 254 249 237 231 226 212 200 203 199 186 176 164 160 163 155 151 147 135 122 113 106 116 155 192 191 184 175 168 168 177 189 195 198 202 203 195 185 183
318 315 317 320 316 313 315 314 313 312 309 305 302 298 295 291 286 282 279 276 272 268 263 260 260 260 260 259 256 256 254 252 253 254 254 253 253 252 250 249 245 245 249 249 241 231 229 236 242 246 248 240 233 235 237 222 207 210 209 195 181 174 178 176 165 162 156 146 142 131 108 99 169 227 217 205 198 189 180 180 190 198 200 202 203 198 193 190
314 313 314 316 313 310 311 310 309 307 305 304 303 301 299 295 290 285 281 277 271 268 267 263 259 256 258 261 260 256 253 252 252 251 250 249 250 249 246 244 244 245 245 241 237 232 230 236 243 246 243 236 231 234 239 228 215 213 208 196 184 185 190 181 171 171 161 162 178 163 138 157 245 273 252 233 223 213 202 193 195 201 203 205 203 199 197 195
311 310 310 312 310 309 309 307 305 303 302 302 301 299 297 294 292 288 283 276 268 267 267 265 260 255 257 261 261 255 252 250 247 246 244 242 244 245 243 242 241 240 237 234 233 231 231 234 237 240 238 233 227 226 230 225 218 213 204 197 193 194 196 185 178 176 171 185 194 185 192 197 210 276 268 258 248 234 226 214 207 207 208 208 207 204 202 199
310 308 309 309 309 308 307 306 305 303 302 301 300 298 296 293 291 288 283 276 269 266 265 262 259 255 254 256 256 253 247 241 242 243 241 238 240 242 241 239 238 237 235 233 232 232 233 232 233 234 233 231 227 219 217 214 211 206 199 198 199 197 194 189 189 187 192 209 203 201 219 205 189 243 255 262 261 249 241 230 220 216 215 212 208 207 207 206
311 310 310 310 309 307 306 306 305 304 303 302 300 299 297 295 291 286 281 274 270 267 263 259 256 252 250 250 250 246 235 232 238 240 235 234 237 238 236 232 232 233 234 232 230 233 233 230 229 227 228 230 221 213 220 216 194 190 196 198 200 199 193 193 198 200 210 219 211 217 236 223 207 233 245 255 267 266 258 246 233 227 226 221 215 212 213 213
314 313 312 311 310 308 308 307 306 305 304 303 301 300 298 296 291 286 279 271 268 265 261 258 255 250 246 243 240 235 229 229 233 235 234 235 238 239 232 224 223 227 231 227 221 224 226 226 227 225 225 227 221 223 239 233 184 188 199 197 199 201 195 197 203 207 217 220 214 231 248 240 226 234 248 251 267 282 274 261 249 241 241 237 229 223 219 220
319 318 316 315 314 314 313 311 310 308 307 305 304 302 300 296 291 286 278 271 267 264 261 258 255 252 247 241 235 230 226 226 228 231 234 235 235 234 228 223 223 226 228 222 217 221 219 218 223 223 222 223 226 234 248 237 194 194 201 198 200 203 198 202 206 211 222 220 216 235 253 251 235 230 248 246 251 277 273 265 256 251 252 248 241 233 226 224
327 325 323 321 320 319 317 314 312 310 307 305 303 301 299 296 293 286 278 274 269 263 261 257 254 252 247 242 238 231 221 219 226 228 230 232 231 230 228 228 230 231 231 223 218 224 224 221 223 221 218 219 226 235 242 240 214 203 204 203 205 207 205 207 210 219 228 225 229 240 251 255 241 223 234 233 234 259 261 256 253 252 254 249 245 243 243 239
334 332 330 328 325 323 320 317 314 311 308 304 302 300 298 296 294 286 279 275 268 263 261 257 254 250 245 242 238 233 225 217 219 222 223 226 228 228 228 231 234 237 239 230 222 227 229 227 226 221 217 218 222 231 237 241 231 214 210 210 210 212 213 215 219 229 237 236 238 244 251 256 241 212 220 222 229 248 250 248 247 249 253 250 244 245 249 245
340 338 336 332 329 326 323 321 317 314 310 305 302 299 296 295 292 286 281 275 268 265 262 256 253 249 243 237 229 230 233 224 217 216 219 222 223 223 221 222 227 231 233 225 220 229 234 233 230 221 218 219 222 231 236 240 238 224 217 216 215 217 220 223 228 238 251 252 245 247 252 251 230 204 217 221 235 245 246 248 246 248 252 251 242 238 240 239
344 341 338 335 331 329 326 323 320 316 312 307 303 299 296 295 292 288 283 277 272 268 261 252 250 245 237 228 218 221 227 224 219 218 217 220 222 223 222 221 223 225 224 217 215 223 228 226 224 218 215 217 220 227 234 238 235 223 220 221 221 224 228 230 235 243 251 252 248 249 249 239 192 159 184 208 235 243 246 248 247 249 253 254 249 242 241 241
345 341 338 335 332 330 328 325 323 319 314 309 304 299 297 295 293 291 286 280 277 269 260 251 245 238 228 219 214 215 218 221 225 224 220 220 219 220 224 224 224 226 226 223 221 223 224 220 215 212 209 207 206 204 213 226 226 219 220 222 223 226 232 233 235 241 248 251 253 250 245 233 158 120 121 137 179 246 249 249 251 256 260 264 262 255 252 251
343 341 338 335 333 331 329 327 325 321 317 312 306 301 298 296 294 293 290 286 281 270 260 251 242 234 222 213 210 211 214 221 230 232 227 223 214 210 213 214 216 223 226 228 228 228 228 221 212 212 208 200 196 193 200 212 217 217 219 221 223 226 229 231 233 239 249 260 262 250 241 226 152 126 123 117 85 18 293 269 271 271 270 270 266 261 259 260
341 339 337 335 333 331 330 329 326 323 319 314 309 304 300 298 296 294 292 290 284 271 260 249 241 233 220 213 212 212 213 218 228 233 227 217 207 199 198 197 201 210 216 221 224 225 221 211 210 212 205 195 194 195 201 208 211 215 218 220 223 225 227 228 229 237 248 260 261 249 237 222 166 143 160 136 81 357 309 284 281 277 272 269 265 261 261 261
339 338 337 335 333 332 331 330 328 325 322 317 313 308 305 302 299 296 294 291 284 273 261 250 241 233 220 213 212 214 212 211 221 225 212 195 189 182 178 181 187 188 193 204 212 217 212 205 208 208 196 192 196 198 203 208 213 216 215 216 220 223 228 229 230 239 250 257 255 243 230 222 184 163 202 190 77 356 291 280 278 275 272 267 263 261 262 261
339 338 338 336 335 335 333 332 331 328 324 320 316 312 309 306 302 299 296 289 280 272 264 253 242 233 225 217 213 214 209 204 210 213 198 181 176 174 175 180 182 180 185 194 200 207 207 204 206 203 193 194 199 202 204 208 216 217 214 215 217 220 224 227 231 238 248 253 248 235 229 229 211 202 211 210 65 55 354 312 290 281 273 262 258 260 264 265
339 338 338 338 337 336 335 334 333 330 326 322 319 315 312 308 304 300 296 288 279 272 265 256 244 234 230 226 222 218 211 204 203 202 195 184 177 177 181 182 181 180 185 189 190 198 203 202 201 199 195 196 199 203 205 208 218 219 217 218 218 219 222 224 227 232 240 245 236 227 228 222 210 210 199 190 352 36 12 344 315 288 271 254 250 259 265 266
340 340 340 340 339 338 337 336 333 331 327 324 321 318 314 310 305 300 296 290 282 271 263 259 249 238 232 230 228 225 218 209 202 197 196 190 184 188 191 186 183 184 187 190 191 197 202 200 198 197 197 195 197 202 204 209 218 218 218 222 225 229 230 229 230 230 233 233 225 228 232 214 208 213 193 191 292 21 359 343 330 291 265 253 254 262 261 252
341 341 342 342 341 340 339 336 334 332 329 326 323 319 315 310 305 301 298 291 282 270 260 257 254 245 237 233 230 227 223 216 208 200 199 198 193 197 198 192 190 191 191 192 192 195 202 200 197 198 196 192 195 201 203 209 217 214 211 213 220 230 235 237 235 233 231 224 219 234 237 216 222 223 184 167 265 348 337 330 323 286 260 253 256 259 253 242
341 341 343 344 343 342 339 338 336 334 331 328 324 319 317 312 307 303 299 292 282 268 257 253 255 252 245 240 235 230 226 222 214 206 204 205 202 203 206 200 196 197 195 193 191 194 200 198 195 196 193 190 195 201 202 206 207 205 206 208 208 212 222 233 233 229 225 218 218 233 229 208 220 206 161 150 296 319 324 318 303 273 254 249 247 247 245 243
340 342 345 346 345 343 341 339 338 336 333 330 325 321 318 315 310 305 299 294 283 269 255 250 252 254 253 248 242 237 232 224 216 208 206 209 208 209 214 208 200 199 197 195 195 200 203 197 192 192 189 190 196 199 197 198 196 196 203 207 207 204 205 215 221 218 212 209 217 226 210 182 179 171 166 264 293 308 316 314 296 268 255 246 233 230 234 238
342 344 345 346 346 345 343 341 339 337 335 331 326 322 320 318 314 306 300 294 285 271 257 249 248 251 254 254 250 245 237 227 221 214 208 208 211 213 218 214 204 200 199 197 198 204 207 198 191 190 188 190 196 195 192 194 197 201 204 204 207 208 205 207 212 212 207 207 218 220 202 192 197 190 208 266 278 292 308 315 297 267 259 248 227 223 229 235
345 345 345 346 347 347 344 342 340 338 336 332 328 324 320 320 316 308 301 296 289 277 261 250 247 247 250 255 256 255 247 234 228 221 211 208 210 213 217 217 208 200 198 200 202 204 206 200 193 191 190 191 194 192 192 198 204 209 209 204 206 210 209 208 210 209 205 206 215 217 207 203 208 209 225 259 266 282 307 321 302 266 259 257 238 232 240 252
344 345 346 347 348 347 345 343 340 340 338 334 330 325 321 319 315 309 303 298 294 287 271 256 249 246 247 251 255 258 256 247 235 223 213 208 209 211 214 215 212 206 200 200 204 205 203 201 196 193 190 190 192 191 191 197 204 208 208 207 211 211 210 211 210 203 201 204 205 209 210 204 206 230 239 253 270 289 310 320 307 268 256 257 247 240 255 269
343 345 348 349 348 346 345 343 341 341 339 335 332 326 320 315 312 308 305 301 296 292 285 272 258 251 248 249 251 253 255 256 248 232 217 209 207 209 211 212 215 215 207 201 202 204 202 200 198 194 191 190 193 194 192 193 198 201 203 208 215 214 211 211 206 198 199 204 199 203 214 208 213 249 250 261 289 304 306 306 319 286 254 247 244 244 261 272
345 347 349 349 348 346 345 344 343 341 340 337 334 329 323 318 312 306 303 301 298 294 290 284 274 263 255 250 251 252 251 252 254 247 230 217 211 209 209 209 212 214 213 208 205 203 203 202 199 194 191 191 196 199 199 198 197 198 203 208 216 219 214 210 205 200 202 206 204 209 217 212 221 245 252 273 307 307 292 292 328 311 252 237 241 250 264 275
347 348 348 348 348 346 345 344 343 342 340 339 336 332 327 323 318 311 304 302 299 295 290 285 280 274 265 256 252 251 250 248 249 251 245 234 224 214 209 207 208 208 210 213 211 206 205 205 201 196 192 195 201 203 203 203 202 203 209 214 219 222 215 208 206 206 207 208 210 216 221 220 229 244 253 279 307 299 282 291 324 307 240 225 236 251 280 300
347 348 348 348 348 347 346 345 344 342 341 339 337 334 329 325 321 316 312 308 301 295 291 286 280 274 270 264 256 251 249 247 246 247 245 243 237 223 212 208 208 207 206 209 210 208 206 205 202 196 195 199 204 206 207 206 205 208 219 227 230 227 217 209 207 209 210 209 212 222 229 230 237 246 242 251 280 289 291 306 312 283 223 198 190 255 292 286
346 347 348 349 348 348 347 346 345 343 342 340 338 335 330 325 321 317 315 313 306 295 290 285 281 276 271 268 264 256 251 247 245 244 241 241 239 230 220 213 208 205 204 206 208 208 207 206 201 195 199 206 206 206 209 209 206 212 223 232 235 233 223 214 210 212 214 212 215 227 232 230 236 242 234 241 267 283 300 311 301 260 203 173 207 261 265 261
Height
5897 5898 5898 5898 5898 5898 5898 5899 5899 5898 5898 5898 5898 5898 5898 5898 5898 5897 5897 5897 5897 5896 5896 5895 5895 5895 5894 5894 5893 5893 5893 5892 5891 5891 5890 5889 5888 5887 5887 5887 5886 5885 5885 5885 5885 5885 5884 5884 5884 5884 5884 5884 5885 5885 5886 5886 5886 5887 5888 5889 5890 5890 5891 5892 5893 5894 5894 5895 5896 5897 5896 5896 5896 5896 5896 5896 5895 5895 5894 5895 5895 5895 5896 5897 5897 5897 5898 5899
5898 5898 5898 5898 5899 5899 5899 5899 5899 5899 5899 5899 5899 5898 5898 5898 5898 5898 5897 5897 5897 5896 5896 5896 5895 5895 5894 5894 5894 5893 5893 5892 5892 5891 5890 5890 5889 5888 5887 5887 5886 5886 5885 5885 5885 5885 5885 5885 5885 5885 5884 5884 5885 5885 5886 5886 5887 5887 5888 5889 5889 5890 5891 5892 5892 5893 5894 5895 5896 5896 5896 5896 5896 5896 5896 5896 5895 5895 5895 5895 5895 5896 5896 5897 5897 5898 5899 5899
5898 5898 5899 5899 5899 5899 5899 5899 5899 5899 5899 5899 5899 5899 5898 5898 5898 5898 5897 5897 5897 5896 5896 5896 5895 5895 5895 5894 5894 5894 5893 5893 5892 5892 5891 5890 5889 5888 5888 5887 5887 5886 5886 5885 5885 5885 5885 5885 5885 5885 5885 5885 5885 5886 5886 5886 5887 5887 5888 5889 5889 5890 5891 5892 5893 5893 5894 5895 5896 5896 5896 5896 5896 5896 5897 5896 5895 5895 5895 5896 5896 5896 5897 5898 5898 5899 5900 5900
5898 5899 5899 5899 5899 5899 5899 5899 5899 5899 5899 5899 5899 5899 5898 5898 5898 5898 5897 5897 5897 5896 5896 5896 5895 5895 5895 5894 5894 5894 5893 5893 5893 5892 5891 5890 5890 5889 5888 5887 5887 5886 5886 5886 5885 5885 5884 5885 5885 5885 5885 5885 5885 5886 5886 5886 5886 5887 5887 5888 5889 5889 5890 5891 5892 5893 5894 5895 5896 5896 5896 5896 5896 5897 5897 5896 5896 5895 5896 5896 5896 5897 5898 5898 5899 5899 5900 5900
5899 5899 5899 5899 5899 5899 5899 5899 5899 5899 5899 5899 5899 5899 5898 5898 5898 5897 5897 5897 5897 5896 5896 5896 5895 5895 5894 5894 5894 5894 5893 5893 5893 5892 5892 5891 5890 5889 5888 5888 5887 5887 5886 5886 5885 5885 5884 5885 5885 5885 5885 5885 5885 5885 5886 5886 5886 5886 5886 5887 5888 5888 5890 5891 5891 5892 5894 5895 5896 5896 5896 5896 5896 5897 5897 5896 5896 5896 5896 5896 5896 5897 5898 5899 5899 5900 5900 5901
5899 5899 5899 5899 5899 5899 5899 5899 5899 5899 5899 5899 5898 5898 5898 5898 5898 5897 5897 5897 5896 5896 5896 5895 5895 5895 5894 5894 5894 5893 5893 5893 5893 5892 5892 5891 5890 5890 5889 5888 5888 5887 5887 5887 5886 5885 5885 5885 5884 5884 5885 5886 5886 5886 5886 5886 5886 5886 5886 5887 5887 5888 5889 5890 5891 5892 5894 5895 5895 5895 5896 5897 5897 5897 5897 5897 5896 5896 5897 5897 5897 5898 5899 5899 5900 5901 5901 5901
5899 5899 5898 5898 5898 5898 5898 5898 5898 5898 5898 5898 5898 5898 5898 5897 5897 5897 5897 5896 5896 5896 5895 5895 5895 5895 5894 5894 5894 5893 5893 5893 5892 5892 5892 5891 5890 5890 5889 5889 5888 5888 5888 5887 5886 5885 5885 5884 5884 5884 5885 5885 5886 5886 5886 5886 5886 5885 5885 5886 5887 5887 5888 5889 5891 5892 5894 5895 5895 5896 5896 5897 5897 5897 5898 5897 5896 5897 5897 5898 5898 5898 5899 5900 5900 5901 5901 5901
5898 5898 5898 5898 5898 5898 5898 5898 5897 5897 5897 5897 5897 5897 5897 5897 5897 5896 5896 5896 5896 5895 5895 5895 5894 5894 5894 5894 5893 5893 5892 5892 5892 5892 5891 5891 5890 5890 5890 5889 5889 5888 5888 5887 5886 5885 5885 5884 5884 5884 5885 5885 5886 5886 5886 5886 5886 5885 5885 5885 5886 5886 5887 5889 5890 5892 5893 5895 5896 5896 5896 5897 5897 5897 5898 5897 5897 5897 5898 5898 5898 5898 5899 5900 5900 5901 5901 5901
5898 5897 5897 5897 5897 5897 5897 5897 5896 5896 5896 5896 5896 5896 5896 5896 5896 5896 5896 5895 5895 5895 5894 5894 5894 5894 5894 5893 5893 5892 5892 5892 5891 5891 5891 5891 5890 5890 5890 5889 5889 5888 5888 5887 5886 5886 5885 5884 5884 5885 5885 5886 5886 5886 5886 5886 5885 5885 5885 5885 5885 5885 5887 5888 5890 5891 5892 5894 5895 5896 5896 5897 5897 5897 5898 5897 5898 5898 5898 5898 5898 5899 5899 5900 5900 5901 5901 5902
5897 5897 5896 5896 5896 5896 5896 5896 5895 5895 5895 5895 5895 5895 5895 5895 5895 5895 5895 5894 5894 5894 5894 5893 5893 5893 5893 5893 5892 5892 5892 5891 5891 5891 5891 5890 5890 5890 5890 5889 5889 5888 5888 5887 5886 5886 5885 5884 5885 5885 5885 5886 5886 5886 5886 5886 5885 5885 5884 5884 5884 5885 5886 5887 5889 5890 5892 5894 5895 5896 5896 5896 5896 5897 5898 5898 5898 5898 5898 5899 5898 5898 5899 5900 5900 5901 5901 5902
5896 5895 5895 5895 5895 5895 5894 5894 5894 5894 5894 5894 5894 5894 5894 5893 5893 5893 5893 5893 5893 5893 5893 5892 5892 5892 5892 5892 5892 5891 5891 5891 5891 5890 5890 5890 5890 5889 5889 5889 5889 5888 5888 5887 5887 5886 5885 5884 5885 5885 5885 5886 5886 5887 5886 5886 5886 5885 5884 5884 5884 5885 5886 5887 5888 5890 5891 5893 5894 5895 5896 5896 5896 5896 5898 5898 5898 5898 5898 5898 5898 5898 5899 5900 5900 5901 5901 5901
5894 5894 5894 5894 5893 5893 5893 5893 5892 5892 5892 5892 5892 5892 5892 5892 5892 5892 5892 5892 5892 5892 5892 5891 5891 5891 5891 5892 5891 5891 5890 5890 5890 5890 5889 5889 5889 5889 5889 5889 5889 5888 5888 5888 5887 5886 5886 5885 5885 5885 5885 5886 5886 5887 5887 5886 5886 5885 5885 5884 5885 5885 5886 5887 5888 5890 5891 5892 5894 5894 5895 5896 5896 5896 5897 5897 5897 5897 5898 5898 5898 5898 5899 5900 5900 5901 5901 5901
5892 5892 5892 5892 5892 5891 5891 5891 5891 5890 5890 5890 5890 5890 5890 5890 5890 5890 5890 5890 5890 5890 5890 5890 5890 5890 5890 5890 5890 5889 5889 5889 5889 5889 5889 5889 5888 5888 5888 5888 5888 5888 5888 5888 5887 5887 5886 5885 5885 5885 5885 5885 5886 5887 5887 5886 5886 5885 5885 5884 5885 5886 5886 5887 5888 5889 5891 5892 5893 5894 5895 5895 5895 5895 5896 5897 5897 5897 5897 5897 5898 5899 5899 5900 5900 5901 5901 5901
5891 5891 5890 5890 5890 5890 5889 5889 5889 5888 5888 5888 5888 5888 5888 5888 5888 5888 5888 5888 5888 5888 5888 5888 5888 5888 5889 5889 5889 5888 5888 5888 5889 5888 5888 5888 5888 5888 5888 5888 5888 5888 5887 5887 5888 5888 5887 5886 5885 5885 5885 5885 5886 5886 5886 5886 5885 5885 5885 5884 5885 5885 5886 5887 5888 5889 5891 5892 5893 5894 5895 5895 5895 5895 5895 5896 5896 5896 5897 5897 5898 5899 5899 5899 5900 5901 5901 5901
5889 5889 5889 5888 5888 5888 5887 5887 5886 5886 5886 5886 5886 5886 5886 5886 5886 5886 5886 5886 5886 5886 5886 5886 5886 5886 5887 5887 5887 5886 5886 5887 5887 5887 5887 5887 5887 5887 5887 5887 5887 5887 5886 5887 5887 5887 5887 5886 5885 5885 5885 5885 5885 5886 5886 5885 5885 5885 5885 5885 5885 5885 5886 5887 5888 5889 5890 5891 5892 5894 5895 5895 5895 5895 5895 5895 5895 5895 5896 5897 5898 5899 5899 5899 5900 5901 5901 5901
5887 5887 5887 5886 5886 5885 5885 5884 5884 5883 5883 5883 5884 5884 5883 5883 5883 5883 5883 5884 5884 5884 5884 5883 5883 5884 5885 5885 5885 5885 5884 5885 5886 5886 5886 5886 5886 5886 5886 5886 5886 5886 5886 5886 5887 5887 5887 5886 5885 5885 5885 5885 5886 5886 5886 5885 5885 5886 5886 5885 5885 5886 5886 5887 5887 5888 5890 5891 5891 5893 5894 5895 5895 5895 5895 5895 5895 5895 5896 5897 5898 5899 5899 5899 5899 5900 5901 5901
5885 5885 5884 5884 5883 5883 5882 5882 5881 5881 5880 5881 5881 5881 5881 5881 5881 5881 5881 5881 5881 5881 5881 5881 5881 5881 5882 5883 5883 5882 5882 5883 5885 5884 5884 5884 5884 5885 5885 5885 5885 5885 5885 5885 5886 5886 5886 5886 5885 5884 5884 5884 5886 5886 5885 5885 5885 5885 5886 5885 5885 5886 5886 5887 5887 5888 5889 5890 5891 5892 5893 5894 5895 5895 5895 5895 5895 5895 5896 5897 5897 5898 5899 5899 5899 5899 5900 5901
5883 5883 5882 5882 5881 5880 5880 5879 5879 5878 5878 5878 5878 5878 5879 5878 5878 5878 5878 5879 5878 5878 5878 5878 5878 5878 5878 5879 5880 5880 5880 5881 5882 5882 5883 5883 5883 5883 5883 5884 5884 5884 5884 5884 5885 5885 5886 5886 5885 5884 5884 5884 5885 5885 5885 5884 5885 5885 5886 5886 5885 5885 5886 5886 5886 5887 5888 5890 5890 5891 5892 5893 5894 5895 5896 5896 5895 5896 5896 5897 5897 5898 5898 5899 5899 5899 5899 5900
5881 5880 5880 5879 5879 5878 5877 5877 5877 5876 5876 5876 5876 5876 5876 5876 5876 5876 5876 5876 5875 5875 5875 5875 5875 5875 5875 5875 5877 5878 5878 5879 5880 5880 5880 5880 5881 5881 5882 5882 5883 5883 5883 5883 5884 5884 5885 5885 5884 5884 5883 5883 5884 5885 5884 5884 5885 5885 5886 5886 5886 5886 5886 5886 5886 5886 5887 5889 5890 5891 5892 5893 5894 5895 5896 5897 5896 5896 5897 5897 5898 5898 5898 5899 5899 5899 5899 5899
5879 5879 5878 5878 5877 5876 5875 5875 5874 5874 5874 5874 5874 5873 5874 5874 5873 5873 5873 5872 5872 5872 5872 5873 5872 5871 5871 5872 5874 5875 5875 5876 5878 5877 5877 5878 5879 5879 5880 5880 5881 5882 5882 5882 5882 5883 5884 5884 5883 5883 5883 5882 5883 5884 5884 5884 5884 5885 5886 5886 5886 5886 5887 5887 5887 5887 5887 5888 5889 5891 5892 5893 5894 5895 5896 5896 5896 5896 5897 5897 5898 5898 5898 5899 5899 5899 5900 5900
5878 5877 5877 5876 5875 5874 5874 5873 5873 5872 5872 5872 5871 5871 5871 5870 5870 5870 5869 5869 5868 5869 5869 5869 5869 5868 5867 5869 5871 5872 5873 5874 5875 5874 5875 5876 5877 5877 5878 5878 5879 5880 5880 5880 5881 5882 5883 5882 5882 5882 5882 5881 5882 5883 5883 5884 5884 5885 5885 5886 5887 5887 5887 5888 5888 5887 5887 5888 5889 5890 5891 5892 5893 5894 5895 5895 5896 5896 5897 5897 5898 5898 5899 5899 5899 5900 5900 5900
5877 5876 5875 5875 5874 5873 5872 5872 5871 5871 5870 5870 5869 5868 5868 5867 5867 5866 5866 5866 5865 5865 5866 5866 5866 5864 5862 5865 5867 5869 5870 5871 5871 5871 5872 5873 5874 5875 5875 5876 5877 5878 5878 5878 5879 5881 5881 5881 5881 5881 5881 5881 5881 5882 5883 5883 5884 5885 5886 5886 5887 5887 5887 5888 5888 5888 5888 5888 5889 5890 5890 5891 5892 5893 5893 5894 5895 5896 5897 5897 5898 5898 5899 5899 5900 5900 5900 5901
5876 5875 5874 5874 5873 5872 5871 5870 5869 5869 5868 5868 5867 5866 5866 5865 5864 5864 5863 5863 5862 5862 5862 5862 5862 5861 5858 5860 5863 5865 5867 5868 5867 5868 5869 5870 5871 5871 5872 5874 5875 5874 5875 5877 5878 5880 5880 5878 5879 5879 5880 5880 5880 5881 5882 5883 5884 5885 5886 5886 5887 5887 5887 5887 5887 5887 5888 5888 5888 5889 5890 5890 5891 5891 5892 5893 5894 5895 5897 5897 5898 5898 5898 5899 5900 5901 5901 5901
5874 5874 5873 5873 5872 5870 5870 5869 5868 5867 5866 5866 5865 5865 5864 5863 5862 5862 5861 5861 5859 5857 5858 5858 5859 5858 5854 5855 5859 5862 5864 5864 5864 5864 5865 5867 5867 5868 5869 5871 5871 5871 5874 5875 5876 5878 5877 5876 5877 5878 5879 5879 5879 5880 5881 5882 5883 5885 5886 5887 5887 5887 5886 5886 5887 5887 5888 5888 5888 5888 5889 5889 5890 5890 5891 5892 5893 5894 5896 5896 5897 5898 5899 5899 5899 5900 5901 5901
5873 5872 5872 5871 5870 5869 5868 5867 5866 5865 5864 5864 5863 5863 5862 5861 5860 5859 5858 5858 5856 5853 5853 5855 5856 5854 5850 5851 5856 5859 5859 5860 5861 5860 5862 5864 5863 5864 5866 5867 5868 5870 5872 5872 5873 5875 5875 5875 5876 5877 5878 5878 5878 5879 5880 5881 5883 5885 5886 5886 5886 5886 5886 5886 5887 5887 5887 5887 5887 5887 5888 5889 5889 5890 5890 5891 5892 5893 5894 5895 5896 5897 5898 5899 5899 5900 5900 5901
5871 5870 5870 5869 5868 5867 5866 5865 5864 5863 5862 5861 5861 5860 5859 5858 5858 5857 5856 5855 5853 5850 5850 5851 5851 5851 5849 5849 5852 5854 5855 5857 5856 5855 5858 5860 5859 5860 5862 5864 5866 5868 5868 5869 5870 5872 5873 5873 5874 5876 5876 5876 5877 5878 5879 5881 5882 5884 5885 5885 5885 5885 5886 5887 5887 5887 5887 5887 5886 5886 5887 5888 5889 5889 5890 5890 5891 5892 5893 5894 5895 5896 5897 5898 5899 5899 5900 5900
5870 5869 5868 5867 5867 5865 5864 5863 5862 5861 5860 5859 5858 5857 5856 5856 5855 5854 5853 5851 5849 5848 5847 5846 5847 5847 5847 5846 5847 5849 5852 5852 5850 5851 5855 5856 5855 5857 5859 5862 5864 5865 5865 5865 5867 5869 5871 5872 5873 5874 5875 5875 5877 5878 5878 5879 5881 5882 5883 5883 5883 5883 5885 5886 5886 5886 5886 5886 5886 5886 5886 5887 5888 5888 5889 5890 5890 5891 5892 5892 5894 5895 5896 5897 5897 5898 5899 5899
5869 5868 5867 5866 5865 5864 5862 5861 5860 5858 5857 5856 5855 5854 5853 5852 5851 5850 5849 5847 5845 5844 5843 5843 5843 5843 5843 5844 5844 5846 5847 5847 5846 5848 5851 5851 5851 5853 5856 5859 5861 5861 5861 5862 5866 5868 5869 5870 5871 5872 5873 5874 5876 5876 5876 5877 5879 5880 5880 5881 5882 5882 5883 5883 5884 5885 5885 5884 5885 5886 5886 5887 5888 5888 5888 5889 5890 5890 5891 5891 5892 5893 5894 5895 5896 5897 5898 5898
5867 5866 5865 5864 5863 5862 5860 5859 5858 5856 5855 5854 5852 5851 5850 5849 5848 5846 5845 5843 5841 5840 5839 5839 5839 5839 5840 5840 5841 5842 5842 5843 5844 5845 5846 5848 5849 5851 5854 5856 5857 5857 5857 5860 5863 5864 5866 5868 5868 5869 5871 5873 5874 5874 5873 5875 5878 5878 5878 5879 5880 5880 5881 5881 5882 5883 5883 5883 5885 5886 5886 5886 5887 5888 5888 5888 5889 5890 5890 5890 5891 5892 5893 5893 5894 5895 5896 5897
5866 5865 5864 5863 5861 5860 5859 5857 5856 5855 5853 5852 5850 5849 5847 5846 5844 5843 5841 5839 5837 5836 5836 5836 5836 5836 5837 5837 5837 5838 5839 5840 5841 5842 5844 5846 5847 5849 5851 5852 5852 5853 5854 5858 5860 5860 5862 5864 5864 5867 5870 5871 5872 5871 5872 5874 5876 5876 5877 5878 5879 5879 5879 5880 5881 5881 5881 5883 5885 5885 5885 5885 5886 5887 5887 5888 5889 5889 5889 5889 5890 5890 5891 5891 5892 5893 5894 5895
5865 5864 5863 5861 5860 5859 5858 5856 5855 5853 5851 5850 5848 5846 5844 5842 5841 5839 5837 5835 5834 5833 5833 5834 5834 5834 5835 5835 5834 5835 5836 5837 5839 5840 5842 5843 5844 5846 5848 5849 5850 5851 5853 5856 5858 5857 5858 5860 5862 5866 5868 5869 5870 5870 5870 5872 5874 5875 5876 5877 5877 5878 5878 5878 5879 5880 5880 5883 5884 5884 5884 5884 5885 5886 5886 5887 5888 5888 5888 5888 5888 5889 5889 5890 5891 5891 5892 5893
5864 5863 5862 5860 5859 5858 5856 5855 5853 5851 5849 5848 5846 5843 5841 5839 5837 5835 5832 5831 5830 5829 5830 5831 5832 5832 5832 5833 5832 5832 5833 5835 5836 5838 5839 5841 5842 5843 5845 5847 5848 5850 5852 5856 5857 5855 5855 5858 5861 5864 5865 5867 5868 5868 5869 5871 5873 5874 5874 5875 5876 5877 5877 5877 5879 5879 5881 5883 5883 5883 5883 5883 5885 5886 5885 5886 5886 5887 5887 5887 5887 5887 5888 5889 5889 5890 5891 5892
5863 5861 5860 5859 5857 5856 5854 5853 5851 5849 5847 5845 5843 5840 5838 5836 5834 5831 5828 5827 5827 5827 5828 5829 5829 5830 5830 5831 5831 5831 5832 5832 5833 5835 5836 5838 5839 5841 5842 5844 5845 5847 5850 5853 5854 5853 5854 5857 5860 5862 5864 5865 5867 5868 5869 5870 5872 5873 5874 5874 5875 5875 5876 5877 5878 5879 5880 5881 5882 5882 5882 5882 5884 5885 5885 5885 5885 5885 5886 5886 5886 5887 5887 5887 5888 5889 5889 5890
5861 5860 5859 5857 5855 5854 5852 5851 5849 5846 5844 5842 5839 5837 5834 5832 5830 5827 5825 5824 5824 5824 5825 5826 5826 5827 5828 5828 5828 5829 5830 5830 5831 5832 5833 5835 5837 5838 5840 5841 5843 5845 5847 5849 5850 5851 5853 5855 5858 5861 5863 5865 5866 5867 5869 5869 5871 5872 5872 5873 5873 5874 5875 5876 5877 5878 5879 5880 5881 5881 5881 5882 5883 5883 5884 5884 5885 5885 5885 5885 5886 5886 5886 5886 5887 5887 5888 5889
5860 5859 5857 5855 5853 5852 5850 5848 5846 5843 5841 5838 5836 5833 5830 5828 5826 5824 5822 5821 5821 5822 5822 5823 5823 5824 5825 5826 5826 5827 5828 5828 5829 5830 5831 5833 5835 5837 5839 5840 5842 5844 5845 5847 5849 5850 5851 5854 5857 5859 5861 5863 5865 5866 5867 5868 5868 5870 5870 5871 5872 5873 5875 5875 5876 5877 5878 5878 5879 5880 5880 5881 5882 5882 5883 5884 5884 5885 5884 5885 5885 5885 5885 5886 5886 5886 5887 5888
5858 5857 5855 5853 5851 5849 5847 5845 5843 5840 5837 5834 5832 5829 5826 5824 5822 5820 5818 5818 5819 5819 5820 5820 5821 5821 5822 5823 5823 5824 5825 5826 5827 5828 5829 5831 5833 5835 5836 5838 5840 5842 5843 5845 5848 5849 5850 5854 5856 5856 5858 5861 5862 5863 5864 5865 5866 5867 5868 5870 5871 5873 5873 5874 5875 5876 5877 5877 5878 5878 5880 5881 5881 5882 5883 5883 5884 5884 5884 5884 5884 5884 5885 5885 5885 5885 5885 5886
5857 5855 5853 5851 5849 5847 5845 5842 5840 5837 5834 5831 5828 5825 5822 5820 5818 5817 5815 5815 5816 5816 5817 5817 5818 5819 5820 5820 5821 5821 5822 5824 5824 5826 5827 5829 5831 5832 5834 5836 5838 5840 5842 5843 5845 5847 5849 5852 5853 5853 5856 5859 5859 5860 5861 5862 5863 5864 5866 5869 5870 5871 5871 5872 5874 5874 5875 5876 5877 5877 5879 5880 5881 5882 5883 5883 5883 5883 5883 5883 5883 5884 5884 5884 5884 5884 5884 5884
5855 5853 5851 5849 5847 5845 5842 5839 5836 5833 5830 5827 5824 5821 5818 5816 5814 5813 5812 5812 5812 5813 5814 5814 5815 5816 5816 5816 5817 5818 5819 5821 5822 5823 5826 5827 5828 5829 5831 5833 5834 5836 5838 5840 5842 5844 5847 5849 5849 5851 5854 5855 5855 5857 5858 5860 5861 5863 5865 5866 5867 5868 5870 5872 5873 5873 5875 5876 5876 5877 5878 5879 5880 5882 5883 5883 5883 5883 5883 5883 5883 5883 5883 5883 5882 5882 5882 5883
5853 5851 5849 5847 5844 5842 5839 5836 5833 5830 5826 5823 5820 5817 5814 5812 5811 5810 5809 5809 5809 5810 5811 5812 5812 5813 5813 5813 5812 5813 5815 5817 5819 5821 5824 5825 5826 5827 5828 5829 5830 5832 5833 5835 5838 5841 5843 5846 5847 5850 5852 5852 5853 5855 5857 5859 5860 5861 5863 5863 5865 5867 5868 5870 5871 5872 5874 5875 5876 5877 5878 5879 5880 5882 5882 5883 5883 5882 5883 5883 5882 5882 5882 5881 5881 5881 5881 5881
5851 5849 5847 5845 5842 5839 5836 5833 5829 5826 5822 5819 5816 5814 5811 5809 5808 5807 5807 5806 5806 5807 5808 5809 5810 5810 5811 5811 5810 5810 5811 5813 5816 5819 5821 5823 5824 5825 5826 5826 5828 5829 5830 5832 5834 5837 5839 5841 5844 5847 5849 5850 5852 5855 5858 5859 5859 5860 5861 5862 5863 5865 5866 5868 5869 5871 5873 5874 5875 5876 5877 5879 5880 5881 5882 5882 5882 5882 5882 5882 5882 5881 5881 5880 5880 5880 5880 5880
5849 5847 5845 5842 5839 5836 5833 5830 5826 5823 5819 5816 5813 5811 5808 5807 5805 5804 5804 5804 5804 5804 5805 5805 5807 5808 5808 5808 5807 5807 5809 5811 5813 5816 5818 5820 5821 5822 5823 5825 5826 5828 5829 5830 5832 5834 5836 5838 5841 5844 5846 5849 5852 5854 5856 5856 5856 5858 5860 5861 5863 5865 5865 5867 5868 5870 5872 5873 5875 5876 5877 5878 5880 5880 5881 5881 5881 5881 5881 5881 5881 5880 5880 5880 5880 5880 5879 5879
5847 5845 5843 5840 5837 5833 5830 5827 5824 5820 5816 5813 5810 5808 5806 5804 5802 5801 5800 5800 5801 5801 5802 5802 5803 5804 5805 5805 5804 5805 5806 5809 5811 5814 5816 5818 5819 5820 5822 5824 5825 5826 5828 5829 5831 5833 5835 5837 5839 5841 5844 5848 5850 5851 5853 5854 5855 5856 5858 5860 5862 5863 5865 5866 5868 5869 5871 5873 5874 5875 5876 5878 5879 5879 5880 5880 5881 5880 5880 5880 5880 5880 5879 5879 5879 5879 5879 5879
5845 5843 5840 5838 5834 5831 5828 5824 5821 5817 5814 5810 5807 5805 5803 5801 5799 5798 5797 5797 5798 5798 5799 5799 5800 5801 5801 5802 5802 5803 5804 5807 5809 5811 5813 5815 5817 5818 5820 5822 5824 5825 5827 5828 5830 5831 5831 5833 5836 5839 5842 5845 5847 5848 5850 5851 5853 5855 5856 5858 5859 5861 5863 5865 5866 5868 5870 5872 5873 5874 5876 5877 5878 5879 5879 5880 5879 5879 5879 5880 5879 5879 5879 5878 5879 5878 5878 5878
5843 5841 5838 5835 5832 5829 5826 5822 5819 5815 5812 5808 5804 5802 5800 5799 5797 5796 5795 5794 5794 5795 5796 5796 5797 5797 5798 5799 5800 5801 5803 5804 5806 5808 5810 5812 5814 5816 5817 5820 5822 5824 5825 5827 5829 5829 5829 5831 5834 5836 5839 5842 5844 5846 5848 5849 5851 5853 5855 5856 5858 5859 5861 5862 5864 5866 5868 5870 5871 5873 5875 5876 5877 5877 5878 5878 5878 5878 5879 5879 5878 5878 5878 5878 5878 5878 5878 5877
5842 5839 5836 5833 5831 5827 5824 5820 5816 5813 5810 5806 5802 5799 5797 5796 5795 5794 5792 5792 5792 5792 5792 5793 5793 5794 5794 5795 5796 5798 5800 5801 5802 5805 5807 5809 5811 5813 5814 5817 5819 5822 5824 5825 5827 5827 5829 5831 5832 5834 5836 5839 5842 5845 5848 5849 5851 5852 5854 5855 5856 5857 5858 5860 5861 5863 5866 5868 5870 5871 5873 5875 5875 5876 5877 5877 5877 5878 5878 5877 5877 5876 5877 5877 5877 5877 5877 5877
5840 5837 5834 5831 5828 5825 5822 5818 5815 5812 5808 5804 5800 5797 5795 5794 5793 5792 5791 5790 5789 5790 5789 5789 5790 5790 5791 5791 5792 5794 5797 5798 5799 5801 5804 5806 5807 5809 5811 5814 5816 5819 5821 5823 5824 5826 5827 5829 5831 5832 5835 5838 5841 5845 5847 5849 5851 5852 5854 5854 5855 5855 5857 5858 5859 5861 5864 5867 5869 5870 5872 5873 5874 5875 5875 5876 5876 5877 5877 5876 5875 5875 5875 5875 5875 5876 5876 5876
5837 5835 5832 5829 5825 5822 5819 5816 5813 5810 5806 5803 5799 5796 5794 5792 5791 5790 5789 5788 5787 5787 5787 5787 5787 5787 5787 5788 5789 5790 5792 5794 5796 5798 5800 5802 5804 5806 5808 5811 5813 5815 5817 5820 5822 5823 5825 5826 5828 5831 5834 5837 5840 5841 5843 5846 5849 5850 5852 5853 5853 5854 5855 5856 5857 5860 5863 5865 5867 5869 5871 5872 5873 5874 5874 5875 5875 5876 5876 5875 5874 5874 5874 5874 5874 5874 5875 5874
5836 5833 5829 5826 5823 5820 5817 5814 5810 5807 5805 5802 5798 5795 5793 5791 5790 5788 5787 5786 5786 5785 5785 5784 5784 5784 5784 5785 5786 5787 5788 5790 5793 5794 5796 5798 5801 5803 5805 5807 5809 5811 5814 5816 5818 5821 5823 5825 5827 5830 5834 5836 5838 5839 5840 5842 5845 5847 5849 5850 5851 5852 5853 5854 5857 5860 5861 5864 5866 5868 5869 5871 5872 5873 5874 5874 5874 5874 5874 5874 5873 5873 5873 5873 5873 5873 5873 5873
5834 5831 5827 5824 5821 5818 5814 5811 5808 5805 5802 5800 5797 5794 5791 5790 5789 5787 5785 5784 5783 5783 5783 5782 5782 5782 5782 5782 5782 5783 5784 5786 5788 5790 5792 5795 5797 5799 5801 5803 5805 5808 5811 5813 5815 5818 5821 5823 5826 5829 5833 5835 5837 5838 5839 5840 5842 5844 5846 5847 5849 5850 5852 5854 5856 5859 5860 5862 5864 5866 5867 5870 5871 5872 5873 5873 5873 5873 5873 5873 5872 5872 5872 5872 5872 5872 5872 5871
5832 5829 5826 5823 5820 5816 5813 5809 5805 5802 5800 5797 5795 5792 5790 5788 5787 5786 5785 5783 5782 5781 5780 5780 5780 5779 5779 5779 5779 5779 5781 5783 5784 5786 5788 5790 5793 5794 5796 5799 5801 5805 5808 5810 5813 5816 5818 5821 5824 5827 5831 5833 5834 5835 5837 5839 5841 5842 5844 5846 5847 5849 5850 5852 5855 5857 5858 5861 5863 5864 5866 5868 5870 5871 5872 5872 5873 5873 5873 5872 5872 5871 5871 5871 5871 5871 5871 5870
5830 5828 5825 5821 5818 5815 5811 5807 5804 5801 5798 5795 5793 5790 5788 5787 5785 5784 5783 5783 5781 5780 5778 5777 5777 5777 5776 5776 5776 5776 5777 5779 5780 5782 5784 5786 5788 5790 5792 5795 5798 5801 5804 5806 5809 5812 5815 5818 5822 5825 5828 5830 5831 5833 5836 5838 5839 5841 5843 5844 5846 5847 5849 5851 5853 5855 5857 5860 5861 5863 5865 5867 5869 5870 5871 5871 5871 5871 5871 5871 5870 5870 5869 5869 5870 5870 5870 5869
5829 5826 5823 5820 5816 5813 5809 5806 5802 5799 5796 5793 5791 5789 5786 5785 5783 5781 5780 5779 5779 5778 5777 5775 5774 5774 5774 5773 5773 5773 5774 5775 5777 5778 5780 5782 5784 5786 5788 5791 5794 5797 5800 5803 5805 5808 5812 5816 5819 5822 5825 5827 5829 5831 5834 5836 5838 5840 5842 5843 5844 5846 5848 5850 5852 5854 5856 5858 5860 5862 5864 5867 5868 5869 5870 5870 5870 5870 5870 5870 5869 5868 5868 5868 5869 5868 5868 5868